Weather History for Buffalo, WY

Change the Weather History Date:

Sunday, July 7, 2013

  Actual Average Record
Temperature  
Mean Temperature 74 °F 69 °F  
Max Temperature 88 °F 83 °F 93 °F (2007)
Min Temperature 60 °F 56 °F 43 °F (2010)
Degree Days  
Heating Degree Days 0 1  
Month to date heating degree days 0 10  
Since 1 June heating degree days 100 173  
Since 1 July heating degree days 0 10  
Cooling Degree Days 9 5  
Month to date cooling degree days 55 33  
Year to date cooling degree days 142 91  
Since 1 June cooling degree days 132 84  
Growing Degree Days 24 (Base 50)    
Moisture  
Dew Point 52 °F    
Average Humidity 54    
Maximum Humidity 84    
Minimum Humidity 24    
Precipitation  
Precipitation 0.00 in 0.05 in 0.01 in (2007)
Month to date precipitation T 0.37  
Year to date precipitation 4.08 8.17  
Sea Level Pressure  
Sea Level Pressure 29.89 in    
Wind  
Wind Speed 11 mph (NNE)    
Max Wind Speed 40 mph    
Max Gust Speed 52 mph    
Visibility 10 miles    
Events Thunderstorm    
T = Trace of Precipitation, MM = Missing Value Source: NWS Daily Summary

Daily Weather History Graph

Daily Weather History Graph

Search for Another Location

Airport:

Trip Planner

Search our weather history database for the weather conditions in past years. The results will help you decide how hot, cold, wet, or windy it might be!

Date:

Astronomy

Jul. 07, 2013 Rise Set
Actual Time 5:30 AM MDT 8:52 PM MDT
Civil Twilight 4:54 AM MDT 9:28 PM MDT
Nautical Twilight 4:07 AM MDT 10:15 PM MDT
Astronomical Twilight 3:07 AM MDT 11:14 PM MDT
Moon 5:11 AM MDT (7/7) 8:15 PM MDT (7/7)
Length of Visible Light 16h 34m
Length of Day
15h 22m
Waning Crescent, 0% of the Moon is Illuminated
Jul 7
Waning Crescent
Jul 8
New
Jul 15
First Quarter
Jul 22
Full
Jul 29
Last Quarter

Hourly Weather History & Observations

Time (MDT) Temp. Heat Index Dew Point Humidity Pressure Visibility Wind Dir Wind Speed Gust Speed Precip Events Conditions
12:17 AM 64.4 °F - 55.4 °F 73% 30.07 in 10.0 mi SSE 8.1 mph - N/A Thunderstorm Clear
12:39 AM 64.4 °F - 55.4 °F 73% 30.07 in 10.0 mi South 13.8 mph - N/A   Clear
12:53 AM 64.9 °F - 55.0 °F 70% 29.90 in 10.0 mi South 13.8 mph - N/A   Clear
1:53 AM 62.1 °F - 52.0 °F 70% 29.87 in 10.0 mi SSE 17.3 mph - N/A   Mostly Cloudy
2:53 AM 62.1 °F - 55.0 °F 78% 29.85 in 10.0 mi South 13.8 mph - N/A   Clear
3:53 AM 63.0 °F - 55.9 °F 78% 29.84 in 10.0 mi South 15.0 mph - N/A   Clear
4:53 AM 61.0 °F - 55.0 °F 81% 29.83 in 10.0 mi South 19.6 mph - N/A   Clear
5:53 AM 61.0 °F - 55.0 °F 81% 29.83 in 10.0 mi SSE 15.0 mph - N/A   Clear
6:53 AM 63.0 °F - 54.0 °F 72% 29.84 in 10.0 mi NNW 6.9 mph - N/A   Clear
7:53 AM 68.0 °F - 55.0 °F 63% 29.86 in 10.0 mi North 10.4 mph - N/A   Clear
8:53 AM 69.1 °F - 55.9 °F 63% 29.88 in 10.0 mi North 8.1 mph - N/A   Clear
9:53 AM 73.9 °F - 54.0 °F 50% 29.87 in 10.0 mi North 6.9 mph - N/A   Clear
10:53 AM 77.0 °F - 55.0 °F 47% 29.88 in 10.0 mi NNE 9.2 mph - N/A   Clear
11:53 AM 78.1 °F - 55.9 °F 46% 29.88 in 10.0 mi NNW 9.2 mph - N/A   Clear
12:53 PM 81.0 °F 80.7 °F 55.0 °F 41% 29.87 in 10.0 mi NW 8.1 mph - N/A   Clear
1:53 PM 82.0 °F 81.3 °F 54.0 °F 38% 29.86 in 10.0 mi Variable 4.6 mph - N/A   Clear
2:53 PM 84.9 °F 83.2 °F 53.1 °F 33% 29.84 in 10.0 mi Calm Calm - N/A   Clear
3:53 PM 88.0 °F - 48.0 °F 25% 29.80 in 10.0 mi Variable 6.9 mph - N/A   Clear
4:53 PM 86.0 °F - 48.0 °F 27% 29.80 in 10.0 mi East 6.9 mph - N/A   Clear
5:53 PM 87.1 °F - 46.0 °F 24% 29.79 in 10.0 mi SSE 8.1 mph - N/A   Clear
6:34 PM 66.2 °F - 51.8 °F 60% 30.00 in 10.0 mi North 40.3 mph 51.8 mph N/A   Clear
6:53 PM 66.9 °F - 50.0 °F 54% 29.90 in 10.0 mi NNW 27.6 mph 44.9 mph N/A   Mostly Cloudy
7:53 PM 68.0 °F - 48.0 °F 49% 29.91 in 10.0 mi NNW 17.3 mph 28.8 mph N/A   Clear
8:53 PM 64.9 °F - 48.0 °F 54% 29.95 in 10.0 mi NNW 11.5 mph 19.6 mph N/A   Clear
9:53 PM 64.9 °F - 48.0 °F 54% 29.98 in 10.0 mi North 4.6 mph - N/A   Clear
10:53 PM 63.0 °F - 48.9 °F 60% 29.97 in 10.0 mi WSW 6.9 mph - N/A   Partly Cloudy
11:53 PM 64.0 °F - 46.9 °F 54% 29.97 in 10.0 mi SE 4.6 mph - N/A   Clear